Akron, CO

6:18 PM MDT on April 27, 2017 (GMT -0600)
Akron-Washington County

Weather History for KAKO - July, 2013

Change the Weather History Date:

Friday, July 12, 2013

  Actual Average Record
Temperature  
Mean Temperature 82 °F 74 °F  
Max Temperature 96 °F 89 °F 105 °F (1939)
Min Temperature 67 °F 60 °F 45 °F (1987)
Degree Days  
Heating Degree Days 0    
Month to date heating degree days 0  
Cooling Degree Days 17    
Month to date cooling degree days 133  
Growing Degree Days 30 (Base 50)    
Moisture  
Dew Point 58 °F    
Average Humidity 53    
Maximum Humidity 81    
Minimum Humidity 24    
Precipitation  
Precipitation 0.34 in 0.08 in 1.59 in (1948)
Month to date precipitation 1.38 0.90  
Year to date precipitation 6.47 9.54  
Sea Level Pressure  
Sea Level Pressure 29.81 in    
Wind  
Wind Speed 15 mph (NE)    
Max Wind Speed 32 mph    
Max Gust Speed 44 mph    
Visibility 10 miles    
Events Rain , Thunderstorm    
T = Trace of Precipitation, MM = Missing Value Source: NWS Daily Summary

Daily Weather History Graph

Daily Weather History Graph

Search for Another Location

Airport or City:

Trip Planner

Search our weather history database for the weather conditions in past years. The results will help you decide how hot, cold, wet, or windy it might be!

Date:

Astronomy

Jul. 12, 2013 Rise Set
Actual Time 5:34 AM MDT 8:22 PM MDT
Civil Twilight 5:01 AM MDT 8:54 PM MDT
Nautical Twilight 4:21 AM MDT 9:35 PM MDT
Astronomical Twilight 3:35 AM MDT 10:21 PM MDT
Moon 9:53 AM MDT (7/12) 10:33 PM MDT (7/12)
Length of Visible Light 15h 52m
Length of Day
14h 48m
Waxing Crescent, 18% of the Moon is Illuminated
Jul 12
Waxing Crescent
Jul 15
First Quarter
Jul 22
Full
Jul 29
Last Quarter
Aug 6
New

Hourly Weather History & Observations

Time (MDT) Temp. Heat Index Dew Point Humidity Pressure Visibility Wind Dir Wind Speed Gust Speed Precip Events Conditions
12:53 AM 73.9 °F - 60.1 °F 62% 29.75 in 10.0 mi South 19.6 mph 25.3 mph N/A   Clear
1:53 AM 73.0 °F - 60.1 °F 64% 29.75 in 10.0 mi South 15.0 mph 23.0 mph N/A   Clear
2:53 AM 71.1 °F - 59.0 °F 66% 29.75 in 10.0 mi South 11.5 mph 21.9 mph N/A   Clear
3:53 AM 70.0 °F - 59.0 °F 68% 29.74 in 10.0 mi South 11.5 mph 23.0 mph N/A   Clear
4:53 AM 68.0 °F - 57.9 °F 70% 29.75 in 10.0 mi South 10.4 mph 19.6 mph N/A   Clear
5:53 AM 66.9 °F - 57.9 °F 73% 29.76 in 10.0 mi South 11.5 mph - N/A   Clear
6:53 AM 71.1 °F - 59.0 °F 66% 29.78 in 10.0 mi SSW 9.2 mph - N/A   Clear
7:53 AM 77.0 °F - 57.0 °F 50% 29.78 in 10.0 mi SW 9.2 mph - N/A   Clear
8:53 AM 81.0 °F 80.8 °F 55.9 °F 42% 29.78 in 10.0 mi NW 10.4 mph - N/A   Clear
9:53 AM 87.1 °F 85.1 °F 54.0 °F 32% 29.78 in 10.0 mi North 10.4 mph 21.9 mph N/A   Clear
10:53 AM 89.1 °F - 48.0 °F 24% 29.78 in 10.0 mi NE 20.7 mph 26.5 mph N/A   Clear
11:53 AM 91.0 °F - 51.1 °F 25% 29.79 in 10.0 mi NE 13.8 mph 20.7 mph N/A   Clear
12:53 PM 91.9 °F 89.5 °F 53.1 °F 27% 29.78 in 10.0 mi East 12.7 mph 19.6 mph N/A   Clear
1:53 PM 93.9 °F 91.7 °F 54.0 °F 26% 29.76 in 10.0 mi ENE 13.8 mph 18.4 mph N/A   Clear
2:53 PM 91.9 °F 90.0 °F 55.0 °F 29% 29.75 in 10.0 mi ENE 11.5 mph - N/A   Clear
3:53 PM 93.9 °F 92.6 °F 57.0 °F 29% 29.73 in 10.0 mi Variable 6.9 mph - N/A   Clear
4:42 PM 93.2 °F 91.9 °F 57.2 °F 30% 29.94 in 10.0 mi SE 9.2 mph 20.7 mph N/A Thunderstorm Thunderstorm
4:53 PM 91.9 °F 90.6 °F 57.0 °F 31% 29.73 in 10.0 mi SE 15.0 mph 20.7 mph N/A Thunderstorm Partly Cloudy
5:11 PM 78.8 °F - 57.2 °F 47% 29.96 in 1.8 mi SE 18.4 mph 40.3 mph 0.21 in Rain , Thunderstorm Heavy Thunderstorms and Rain
5:21 PM 84.2 °F 82.8 °F 53.6 °F 35% 29.94 in 3.0 mi East 17.3 mph 31.1 mph 0.32 in Rain , Thunderstorm Light Thunderstorms and Rain
5:53 PM 82.9 °F - 52.0 °F 34% 29.75 in 10.0 mi ENE 8.1 mph - 0.32 in Rain , Thunderstorm Light Rain
6:53 PM 75.0 °F - 60.1 °F 60% 29.82 in 10.0 mi WNW 29.9 mph 43.7 mph 0.02 in Rain , Thunderstorm Light Rain
7:03 PM 71.6 °F - 62.6 °F 73% 30.01 in 10.0 mi NW 29.9 mph 39.1 mph 0.00 in Thunderstorm Mostly Cloudy
7:28 PM 66.2 °F - 62.6 °F 88% 30.01 in 10.0 mi NNW 26.5 mph 34.5 mph 0.00 in   Partly Cloudy
7:53 PM 68.0 °F - 62.1 °F 81% 29.83 in 10.0 mi NNW 23.0 mph 29.9 mph 0.00 in   Clear
8:53 PM 69.1 °F - 62.1 °F 78% 29.81 in 10.0 mi NNW 16.1 mph - N/A   Scattered Clouds
9:53 PM 68.0 °F - 63.0 °F 84% 29.85 in 10.0 mi West 16.1 mph 21.9 mph N/A   Clear
10:53 PM 68.0 °F - 62.1 °F 81% 29.87 in 10.0 mi NW 18.4 mph - N/A   Clear
11:53 PM 68.0 °F - 60.1 °F 76% 29.87 in 10.0 mi North 13.8 mph - N/A   Clear